Regional Weather Roundup
Issued by NWS

Home | Current Version | Previous Version | Text Only | Print | Product List | Glossary On
Versions: 1 2 3 4 5 6 7 8 9 10 11 12 13 14 15 16 17 18 19 20 21 22 23 24 25 26 27 28 29 30 31 32 33 34 35 36 37 38 39 40 41 42 43 44 45 46 47 48 49 50
000
ASUS43 KBIS 280410
RWRND
NORTH DAKOTA REGIONAL WEATHER ROUNDUP
NATIONAL WEATHER SERVICE EASTERN NORTH DAKOTA/GRAND FORKS ND
1100 PM CDT TUE JUN 27 2017

  NOTE: "FAIR" INDICATES FEW OR NO CLOUDS BELOW 12,000 FEET WITH NO
  SIGNIFICANT WEATHER AND/OR OBSTRUCTIONS TO VISIBILITY.

NDZ001>003-009>011-017-280500-
...NORTHWEST NORTH DAKOTA...

CITY           SKY/WX    TMP DP  RH WIND       PRES   REMARKS
WILLISTON      FAIR      69  58  67 N10       29.64R
MINOT          FAIR      73  60  63 N10       29.53R
MINOT AFB      FAIR      73  61  66 NW14      29.53R
$$

NDZ018>021-031>035-040>046-280500-
...SOUTHWEST NORTH DAKOTA...

CITY           SKY/WX    TMP DP  RH WIND       PRES   REMARKS
BISMARCK       FAIR      68  65  90 NE9       29.53R
DICKINSON      CLOUDY    72  51  47 NW17G25   29.64R
GARRISON         N/A     66  62  87 SE5       29.54R
HETTINGER      CLOUDY    75  50  41 NW18      29.66R
$$

NDZ004>008-012>016-024-026-027-054-280500-
...NORTHEAST NORTH DAKOTA...

CITY           SKY/WX    TMP DP  RH WIND       PRES   REMARKS
GRAND FORKS    FAIR      68  50  52 SE14      29.62R
GRAND FORKS AF FAIR      65  48  54 SE10      29.62R
DEVILS LAKE    FAIR      69  55  60 SE10      29.58R
$$

NDZ022-023-025-028>030-036>039-047>053-280500-
...SOUTHEAST NORTH DAKOTA...

CITY           SKY/WX    TMP DP  RH WIND       PRES   REMARKS
JAMESTOWN      MOCLDY    72  51  47 SE15      29.53F
FARGO          CLOUDY    71  50  47 SE14G24   29.63S
WAHPETON       CLOUDY    68  45  42 SE15      29.65F
$$




USA.gov is the U.S. government's official web portal to all federal, state and local government web resources and services.